Weather History for KOSC - September, 2013

Change the Weather History Date:

Thursday, September 26, 2013

  Actual Average Record
Temperature  
Mean Temperature 54 °F -  
Max Temperature 68 °F 63 °F 87 °F (1998)
Min Temperature 40 °F 44 °F 35 °F (2000)
Degree Days  
Heating Degree Days 11    
Growing Degree Days 4 (Base 50)    
Moisture  
Dew Point 47 °F    
Average Humidity 83    
Maximum Humidity 99    
Minimum Humidity 53    
Precipitation  
Precipitation 0.00 in - - ()
Sea Level Pressure  
Sea Level Pressure 30.11 in    
Wind  
Wind Speed 2 mph (NE)    
Max Wind Speed 8 mph    
Max Gust Speed -    
Visibility 9 miles    
Events Fog    
Averages and records for this station are not official NWS values.
T = Trace of Precipitation, MM = Missing Value Source: NWS Daily Summary

Daily Weather History Graph

Daily Weather History Graph

Search for Another Location

Airport or City:

Trip Planner

Search our weather history database for the weather conditions in past years. The results will help you decide how hot, cold, wet, or windy it might be!

Date:

Astronomy

Sep. 26, 2013 Rise Set
Actual Time 7:25 AM EDT 7:23 PM EDT
Civil Twilight 6:56 AM EDT 7:52 PM EDT
Nautical Twilight 6:22 AM EDT 8:25 PM EDT
Astronomical Twilight 5:48 AM EDT 9:00 PM EDT
Moon No Moon Rise 2:28 PM EDT (9/26)
Length of Visible Light 12h 55m
Length of Day
11h 57m
Waning Gibbous, 55% of the Moon is Illuminated
Sep 26
Waning Gibbous
Sep 26
Last Quarter
Oct 4
New
Oct 11
First Quarter
Oct 18
Full

Hourly Weather History & Observations

Time (EDT) Temp. Windchill Dew Point Humidity Pressure Visibility Wind Dir Wind Speed Gust Speed Precip Events Conditions
12:14 AM 43.3 °F - 42.8 °F 98% 30.04 in 7.0 mi Calm Calm - N/A   Scattered Clouds
12:34 AM 43.9 °F - 43.2 °F 97% 30.04 in 10.0 mi Calm Calm - N/A   Clear
12:53 AM 43.5 °F - 43.0 °F 98% 30.04 in 10.0 mi Calm Calm - N/A   Clear
1:13 AM 44.1 °F - 43.7 °F 99% 30.03 in 7.0 mi Calm Calm - N/A   Clear
1:34 AM 41.7 °F - 41.0 °F 97% 30.03 in 0.8 mi Calm Calm - N/A   Mist
1:53 AM 42.3 °F 40.5 °F 41.5 °F 97% 30.04 in 10.0 mi NNW 3.5 mph - N/A   Clear
2:14 AM 42.8 °F - 42.3 °F 98% 30.04 in 10.0 mi Calm Calm - N/A   Clear
2:34 AM 42.4 °F - 41.9 °F 98% 30.04 in 10.0 mi Calm Calm - N/A   Clear
2:53 AM 42.3 °F - 41.7 °F 98% 30.04 in 7.0 mi Calm Calm - N/A   Clear
3:14 AM 40.8 °F - 40.3 °F 98% 30.05 in 10.0 mi Calm Calm - N/A   Clear
3:34 AM 42.3 °F - 41.9 °F 99% 30.06 in 10.0 mi Calm Calm - N/A   Clear
3:53 AM 41.4 °F - 41.0 °F 99% 30.06 in 7.0 mi Calm Calm - N/A   Clear
4:14 AM 42.3 °F - 41.9 °F 99% 30.06 in 10.0 mi Calm Calm - N/A   Clear
4:34 AM 42.3 °F - 41.9 °F 99% 30.06 in 10.0 mi Calm Calm - N/A   Clear
4:53 AM 42.1 °F - 41.7 °F 99% 30.07 in 10.0 mi Calm Calm - N/A   Clear
5:14 AM 40.5 °F 37.3 °F 39.9 °F 98% 30.07 in 7.0 mi NNW 4.6 mph - N/A   Clear
5:34 AM 41.9 °F 40.0 °F 41.4 °F 98% 30.08 in 10.0 mi NNW 3.5 mph - N/A   Clear
5:53 AM 42.1 °F 40.2 °F 41.7 °F 99% 30.08 in 10.0 mi NNW 3.5 mph - N/A   Clear
6:14 AM 41.9 °F - 41.4 °F 98% 30.09 in 10.0 mi Calm Calm - N/A   Clear
6:33 AM 41.9 °F - 41.4 °F 98% 30.09 in 10.0 mi Calm Calm - N/A   Clear
6:54 AM 41.7 °F - 41.2 °F 98% 30.09 in 10.0 mi Calm Calm - N/A   Clear
7:14 AM 41.2 °F - 40.6 °F 98% 30.10 in 10.0 mi Calm Calm - N/A   Clear
7:33 AM 40.8 °F 37.8 °F 40.1 °F 97% 30.11 in 10.0 mi NW 4.6 mph - N/A   Clear
7:54 AM 41.7 °F 39.8 °F 41.2 °F 98% 30.11 in 10.0 mi NNW 3.5 mph - N/A   Clear
8:14 AM 43.5 °F 40.9 °F 43.2 °F 99% 30.11 in 10.0 mi NNW 4.6 mph - N/A   Clear
8:33 AM 45.1 °F 42.8 °F 44.6 °F 98% 30.12 in 10.0 mi NNW 4.6 mph - N/A   Clear
8:54 AM 47.7 °F - 47.1 °F 98% 30.13 in 10.0 mi NNW 3.5 mph - N/A   Clear
9:14 AM 50.0 °F - 48.6 °F 95% 30.13 in 10.0 mi NNW 4.6 mph - N/A   Clear
9:33 AM 51.4 °F - 49.3 °F 92% 30.13 in 10.0 mi NNW 3.5 mph - N/A   Clear
9:54 AM 54.3 °F - 50.9 °F 88% 30.13 in 10.0 mi NNW 4.6 mph - N/A   Clear
10:14 AM 57.0 °F - 52.3 °F 84% 30.13 in 10.0 mi Calm Calm - N/A   Clear
10:33 AM 59.7 °F - 53.8 °F 81% 30.13 in 10.0 mi Calm Calm - N/A   Clear
10:54 AM 61.7 °F - 54.1 °F 76% 30.14 in 10.0 mi NNE 3.5 mph - N/A   Clear
11:14 AM 63.7 °F - 54.0 °F 71% 30.14 in 10.0 mi Calm Calm - N/A   Clear
11:33 AM 65.8 °F - 51.4 °F 60% 30.13 in 10.0 mi Calm Calm - N/A   Clear
11:54 AM 67.5 °F - 50.4 °F 54% 30.14 in 10.0 mi ENE 3.5 mph - N/A   Clear
12:14 PM 67.6 °F - 50.4 °F 54% 30.13 in 10.0 mi East 5.8 mph - N/A   Clear
12:33 PM 67.8 °F - 50.2 °F 53% 30.13 in 10.0 mi East 5.8 mph - N/A   Clear
12:54 PM 68.4 °F - 50.4 °F 53% 30.13 in 10.0 mi ENE 4.6 mph - N/A   Clear
1:14 PM 68.0 °F - 50.7 °F 54% 30.13 in 10.0 mi ENE 5.8 mph - N/A   Clear
1:33 PM 68.7 °F - 51.8 °F 55% 30.13 in 10.0 mi East 8.1 mph - N/A   Clear
1:54 PM 68.0 °F - 52.9 °F 58% 30.12 in 10.0 mi East 5.8 mph - N/A   Clear
2:13 PM 68.0 °F - 52.0 °F 56% 30.12 in 10.0 mi East 5.8 mph - N/A   Clear
2:33 PM 68.4 °F - 51.6 °F 55% 30.12 in 10.0 mi ENE 5.8 mph - N/A   Clear
2:54 PM 68.4 °F - 51.4 °F 55% 30.12 in 10.0 mi East 4.6 mph - N/A   Clear
3:13 PM 68.2 °F - 52.7 °F 58% 30.12 in 10.0 mi ENE 6.9 mph - N/A   Clear
3:33 PM 68.0 °F - 53.4 °F 60% 30.13 in 10.0 mi East 6.9 mph - N/A   Clear
3:54 PM 68.0 °F - 52.9 °F 58% 30.12 in 10.0 mi East 5.8 mph - N/A   Clear
4:13 PM 68.0 °F - 51.1 °F 55% 30.13 in 10.0 mi East 6.9 mph - N/A   Clear
4:33 PM 68.2 °F - 51.3 °F 55% 30.13 in 10.0 mi East 5.8 mph - N/A   Clear
4:54 PM 67.5 °F - 51.1 °F 56% 30.12 in 10.0 mi East 5.8 mph - N/A   Clear
5:13 PM 66.6 °F - 52.0 °F 59% 30.12 in 10.0 mi ENE 6.9 mph - N/A   Clear
5:33 PM 66.2 °F - 51.1 °F 58% 30.13 in 10.0 mi ENE 3.5 mph - N/A   Clear
5:54 PM 65.8 °F - 51.4 °F 60% 30.13 in 10.0 mi ENE 3.5 mph - N/A   Clear
6:13 PM 65.3 °F - 52.3 °F 63% 30.13 in 10.0 mi ENE 3.5 mph - N/A   Clear
6:34 PM 64.4 °F - 53.2 °F 67% 30.13 in 10.0 mi Calm Calm - N/A   Clear
6:54 PM 62.4 °F - 53.4 °F 72% 30.14 in 10.0 mi NE 4.6 mph - N/A   Clear
7:13 PM 61.2 °F - 55.0 °F 80% 30.14 in 10.0 mi NE 3.5 mph - N/A   Clear
7:34 PM 60.3 °F - 55.9 °F 86% 30.14 in 10.0 mi Calm Calm - N/A   Clear
7:54 PM 59.4 °F - 55.9 °F 88% 30.14 in 10.0 mi Calm Calm - N/A   Clear
8:13 PM 55.2 °F - 51.4 °F 87% 30.14 in 10.0 mi Calm Calm - N/A   Clear
8:34 PM 53.6 °F - 49.8 °F 87% 30.15 in 10.0 mi Calm Calm - N/A   Clear
8:54 PM 51.8 °F - 49.1 °F 90% 30.15 in 10.0 mi Calm Calm - N/A   Clear
9:13 PM 50.7 °F - 48.0 °F 90% 30.15 in 10.0 mi Calm Calm - N/A   Clear
9:34 PM 49.3 °F - 46.9 °F 92% 30.15 in 10.0 mi Calm Calm - N/A   Scattered Clouds
9:54 PM 49.1 °F - 47.3 °F 93% 30.16 in 7.0 mi Calm Calm - N/A   Scattered Clouds
10:13 PM 46.8 °F - 45.3 °F 95% 30.16 in 0.2 mi Calm Calm - N/A Fog Fog
10:34 PM 46.6 °F - 45.9 °F 97% 30.16 in 0.2 mi Calm Calm - N/A Fog Fog
10:54 PM 45.5 °F - 44.8 °F 97% 30.16 in 0.5 mi Calm Calm - N/A Fog Fog
11:13 PM 45.7 °F - 45.1 °F 98% 30.16 in 0.2 mi Calm Calm - N/A Fog Fog
11:34 PM 45.5 °F - 45.0 °F 98% 30.16 in 0.2 mi Calm Calm - N/A Fog Fog
11:54 PM 45.5 °F - 45.1 °F 99% 30.16 in 0.5 mi Calm Calm - N/A Fog Fog